"Pseudo-MPEC" for Perseverance

Created 2020 Jul 31 0:44:40 UT using Find_Orb

Click here for an explanation of pseudo-MPECs

According to the data thus far, this object is going to Mars. We also have data for the booster for this spacecraft, which will probably miss Mars; we should have enough data soon to say by how much. (Neither MPEC will be updated until Sunday or Monday; I'll be out of the office and out of Internet range.)

 
 Astrometry: 
     Persev   C2020 07 30.88103 00 14 52.14 +20 03 08.4          16.3 Vq     XXX
Perseverance  C2020 07 30.88168 00 15 08.24 +20 11 23.0          15.0 GV     C47
Perseverance  C2020 07 30.88399 00 15 13.98 +20 12 59.1          14.6 GV     C47
     Persev   C2020 07 30.88514 00 15 03.91 +20 06 02.5          16.4 Vq     XXX
Perseverance  C2020 07 30.88606 00 15 19.03 +20 14 25.1          15.0 GV     C47
Perseverance  C2020 07 30.88805 00 15 23.79 +20 15 46.4          14.4 GV     C47
Perseverance  C2020 07 30.89004 00 15 28.42 +20 17 07.2          14.5 GV     C47
Perseverance  C2020 07 30.89203 00 15 32.95 +20 18 26.5          14.8 GV     C47
    Mars2020  CK200730:22261062 004.25773   +20.53650            15.0 GV     J95
    Mars2020  CK200730:22271937 004.26418   +20.54413            14.9 GV     J95
    Mars2020  CK200730:22283005 004.27076   +20.55170            14.9 GV     J95
    Mars2020  CK200730:22295762 004.27879   +20.56109            15.0 GV     J95
     Mars20   C2020 07 30.93825200 17 47.46 +20 49 03.2          15.2 G      C95
     Mars20   C2020 07 30.93982600 17 49.72 +20 49 55.4          15.1 G      C95
     Mars20   C2020 07 30.94138900 17 51.93 +20 50 45.1          15.1 G      C95
     Mars20   C2020 07 30.94295100 17 54.08 +20 51 35.8          15.0 G      C95
     Perseve  C2020 07 30.94348 00 17 41.40 +20 54 19.3          15.5 GV     104
     Perseve  C2020 07 30.94446 00 17 42.37 +20 54 46.7          15.8 GV     104
     Mars20   C2020 07 30.94450200 17 56.14 +20 52 24.9          15.3 G      C95
     Perseve  C2020 07 30.94478 00 17 42.86 +20 54 57.4          14.8 GV     104
     Perseve  C2020 07 30.94509 00 17 43.22 +20 55 07.4          14.6 GV     104
     Mars20   C2020 07 30.94604200 17 58.28 +20 53 14.9          15.1 G      C95
     Mars20   C2020 07 30.94761600 18 00.30 +20 54 04.2          15.1 G      C95
     Mars20   C2020 07 30.94916700 18 02.29 +20 54 52.8          15.2 G      C95
    Persever  C2020 07 30.94994 00 17 54.13 +21 03 07.8          14.7 R      470
    Persever  C2020 07 30.95058 00 17 54.69 +21 03 25.0          14.4 R      470
     Mars20   C2020 07 30.95074100 18 04.22 +20 55 40.9          15.0 G      C95
    Persever  C2020 07 30.95117 00 17 55.23 +21 03 43.1          15.1 R      470
     Mars20   C2020 07 30.95230300 18 06.07 +20 56 28.7          15.1 G      C95
2020-052A     CK200730:225451   004.38255   +20.72370            15.0 GV     970
2020-052A     CK200730:225809   004.39684   +20.74318            15.1 GV     970
2020-052A     CK200730:230054   004.40847   +20.75921            15.1 GV     970
     Perseve KC2020 07 30.96100 00 17 59.52 +21 03 02.8          15.6 GV     104
     Perseve KC2020 07 30.96422 00 18 02.33 +21 04 33.9          14.7 GV     104
     Perseve KC2020 07 30.96744 00 18 04.98 +21 06 03.5          15.0 GV     104
     Perseve KC2020 07 30.97065 00 18 07.49 +21 07 32.2          15.1 GV     104
     Perseve KC2020 07 30.97386 00 18 09.84 +21 08 59.2          15.1 GV     104
     Perseve KC2020 07 30.97708 00 18 12.02 +21 10 24.1          15.0 GV     104
     Perseve KC2020 07 30.98029 00 18 14.05 +21 11 47.8          14.9 GV     104
     Perseve KC2020 07 30.98350 00 18 16.01 +21 13 10.1          15.1 GV     104
2020-052A     CK200730:233902   004.54492   +20.96758            15.0 GV     970
2020-052A     CK200730:233951   004.54732   +20.97171            15.2 GV     970
     Perseve KC2020 07 30.98671 00 18 17.80 +21 14 31.4          15.5 GV     104
     Perseve KC2020 07 30.99314 00 18 20.97 +21 17 09.1          14.9 GV     104
     Perseve KC2020 07 30.99957 00 18 23.74 +21 19 41.5          15.1 GV     104
     Perseve KC2020 07 31.00279 00 18 24.86 +21 20 55.0          15.3 GV     104
     Perseve KC2020 07 31.00600 00 18 25.99 +21 22 08.0          15.3 GV     104
     Perseve KC2020 07 31.00921 00 18 26.97 +21 23 19.7          15.4 GV     104

Station data:
(104) San Marcello Pistoiese  (N44.063037 E10.804200)  Italy.  Observers P.
   Bacci, M. Maestripieri, G. Fagioli. Measurers P. Bacci, L. Tesi, G.
   Fagioli. 0.25-m F.6.3 Reflector + CCD.
(470) Ceccano  (N41.570282 E13.327560)  Italy. 0.28-m Schmidt-Cassegrain.
(970) Chelmsford  (N51.744716 E0.495400)  UK.  Observer N. James.
(C47) Nonndorf  (N48.786797 E15.235600)  Austria.  Observer G. Dangl. 0.25-m
   f/4.8 reflector + CCD.
(C95) SATINO Remote Observatory, Haute Provence  (N43.932042 E5.712390)
   France.  Observer J. Jahn. 0.60-m f/3.2 Newtonian reflector + CCD.
(J95) Great Shefford  (N51.474969 W1.447003)  UK.  Observer P. Birtwhistle.
(XXX) Herkenrath  (N50.993306 E7.183806)  Germany.  Observer B. Klemt. 0.3 m
   RC f/8 with focal reducer @ f/5.6 + CCD.

Orbital elements:  Perseverance (geocentric,  departure)
   Perigee 2020 Jul 30.5276749 +/- 0.000268 TT = 12:39:51.11 (JD 2459061.0276749)
Epoch 2020 Jul 31.0 TT = JDT 2459061.5                        Find_Orb
q  6594.5970739 +/- 3.04            (J2000 equator)
H   27.7  G 0.15                    Peri.  276.0850433 +/- 0.06
                                    Node   312.4103499 +/- 0.041
e   1.238676217 +/- 0.000505        Incl.   27.5889631 +/- 0.0057
From 48 observations 2020 July 30-31 (3.1 hr); mean residual 0".540

Orbital elements:  Perseverance (Mars arrival)
   Perimars 2021 Feb 20.0729493 +/- 0.724 TT =  1:45:02.82 (JD 2459265.5729493)
Epoch 2021 Feb 20.0 TT = JDT 2459265.5                        Find_Orb
q162475.95486 +/- 100632            (J2000 ecliptic)
H   27.7  G 0.15                    Peri.  240.9637906 +/- 0.25
                                    Node    37.0052627 +/- 2.9
e  25.252750348 +/- 14.8            Incl.   62.0847755 +/- 3.8
From 48 observations 2020 July 30-31 (3.1 hr); mean residual 0".540
Residuals in arcseconds: 
200730 XXX .548+ .554-    200730 104 1.92+ 2.66+    200730 104 .213- .485+
200730 C47 .153+ .171-    200730 104 .765- .597-    200730 104 .241- .031+
200730 C47 .038- .576-    200730 C95 .907- .141-    200730 104 .289- .391-
200730 XXX 1.19+ .076-    200730 104 .836+ .125+    200730 104 .033- .076+
200730 C47 .136+ .119-    200730 104 .806+ .474+    200730 104 .069+ .337+
200730 C47 .429+ .231-    200730 C95 .441+ 0.99+    200730 104 .275- .288-
200730 C47 .301+ .042-    200730 C95 .124+ .724+    200730 104 .651- .380-
200730 C47 .156+ .561-    200730 C95 .438+ .846+    200730 104 .097- .422-
200730 J95 .085- .222-    200730 470 .197+ 1.43+    200730 970 .107+ .428-
200730 J95 .098- .379+    200730 470 .262- .485-    200730 970 .039- .624-
200730 J95 .094- .109+    200730 C95 .138+ .120+    200730 104 .069- .026-
200730 J95 .238- .047-    200730 470 .269- .053+    200730 104 .482- .120-
200730 C95 .281+ .222+    200730 C95 .448- .165-    200730 104 .267+ .091+
200730 C95 .008+ .964+    200730 970 .339+ .183+    200731 104 .690- .548-
200730 C95 .063- .053-    200730 970 .183+ .245+    200731 104 .067+ .097-
200730 C95 .288- .340+    200730 970 .090+ .128+    200731 104 .196+ .400+

